WZZ932 LICC-LIMJ

Flight info

Callsign WZZ932
Flight time 1h 18m
Altitude 36000
Route BUDIN DCT TAGEL DCT ELB DCT BETEN/N0340F180 M729 IDONA
Aircraft A21N/M-SDE2E3FGHIRWXY/LB1

Departure

Time 2026-04-26 16:53
Airport Catania-Fontanarossa Airport (LICC)

Arrival

Time 2026-04-26 18:11
Airport Genoa Cristoforo Colombo Airport (LIMJ)
Time Latitude Longitude Altitude Speed Heading
2026-04-26 16:47 37.46945 15.06526 54 ft 0 kts 19°
2026-04-26 16:49 37.46932 15.06520 52 ft 3 kts 17°
2026-04-26 16:49 37.46912 15.06514 54 ft 3 kts 11°
2026-04-26 16:49 37.46892 15.06510 54 ft 3 kts
2026-04-26 16:49 37.46872 15.06509 54 ft 3 kts 354°
2026-04-26 16:50 37.46852 15.06514 48 ft 3 kts 335°
2026-04-26 16:50 37.46839 15.06524 53 ft 2 kts 298°
2026-04-26 16:50 37.46839 15.06506 51 ft 4 kts 263°
2026-04-26 16:50 37.46835 15.06469 54 ft 6 kts 261°
2026-04-26 16:51 37.46822 15.06373 51 ft 15 kts 261°
2026-04-26 16:51 37.46810 15.06242 54 ft 16 kts 263°
2026-04-26 16:51 37.46796 15.06063 54 ft 31 kts 263°
2026-04-26 16:51 37.46763 15.05694 54 ft 45 kts 264°
2026-04-26 16:52 37.46717 15.05488 54 ft 5 kts 220°
2026-04-26 16:52 37.46708 15.05479 54 ft 5 kts 214°
2026-04-26 16:52 37.46591 15.05579 53 ft 26 kts 89°
2026-04-26 16:52 37.46626 15.06005 54 ft 78 kts 84°
2026-04-26 16:53 37.46705 15.06963 50 ft 142 kts 84°
2026-04-26 16:53 37.46812 15.08291 477 ft 150 kts 82°
2026-04-26 16:53 37.46915 15.09560 1270 ft 144 kts 84°
2026-04-26 16:53 37.47059 15.10866 1774 ft 165 kts 83°
2026-04-26 16:54 37.47295 15.12415 2040 ft 194 kts 81°
2026-04-26 16:54 37.47697 15.14143 2322 ft 219 kts 64°
2026-04-26 16:54 37.48763 15.15646 2580 ft 247 kts 30°
2026-04-26 16:54 37.50487 15.16127 2988 ft 265 kts 354°
2026-04-26 16:55 37.52266 15.15557 3856 ft 264 kts 336°
2026-04-26 16:55 37.53883 15.14536 4781 ft 263 kts 329°
2026-04-26 16:55 37.62120 15.05083 5075 ft 2545 kts 328°
2026-04-26 16:55 37.68615 14.95294 5084 ft 637 kts 328°
2026-04-26 16:56 37.73512 14.91181 6137 ft 248 kts 328°
2026-04-26 16:56 37.74997 14.90218 7325 ft 231 kts 335°
2026-04-26 16:56 37.76367 14.89365 8570 ft 207 kts 333°
2026-04-26 16:57 37.77570 14.88589 9664 ft 192 kts 333°
2026-04-26 16:57 37.78877 14.87749 9695 ft 225 kts 333°
2026-04-26 16:57 37.81966 14.85830 10321 ft 269 kts 334°
2026-04-26 16:58 37.83727 14.84764 10623 ft 292 kts 334°
2026-04-26 16:58 37.84354 14.84386 10751 ft 299 kts 334°
2026-04-26 16:58 37.89818 14.81109 11841 ft 347 kts 334°
2026-04-26 16:59 37.92025 14.79784 12575 ft 354 kts 333°
2026-04-26 16:59 37.95768 14.77532 13867 ft 362 kts 334°
2026-04-26 17:00 38.00379 14.74751 15211 ft 371 kts 333°
2026-04-26 17:00 38.05091 14.71903 16575 ft 379 kts 333°
2026-04-26 17:00 38.07486 14.70455 17231 ft 384 kts 333°
2026-04-26 17:01 38.09907 14.68989 17915 ft 387 kts 333°
2026-04-26 17:01 38.12342 14.67513 18559 ft 390 kts 333°
2026-04-26 17:01 38.14801 14.66022 19158 ft 392 kts 333°
2026-04-26 17:01 38.17273 14.64523 19781 ft 394 kts 333°
2026-04-26 17:02 38.19750 14.63019 20368 ft 396 kts 333°
2026-04-26 17:02 38.22251 14.61499 20931 ft 399 kts 334°
2026-04-26 17:02 38.24763 14.59971 21495 ft 402 kts 334°
2026-04-26 17:02 38.27266 14.58447 22026 ft 405 kts 334°
2026-04-26 17:03 38.29819 14.56892 22579 ft 408 kts 333°
2026-04-26 17:03 38.32388 14.55327 23117 ft 411 kts 333°
2026-04-26 17:03 38.34975 14.53749 23650 ft 413 kts 333°
2026-04-26 17:03 38.37580 14.52158 24095 ft 416 kts 333°
2026-04-26 17:04 38.40198 14.50558 24537 ft 418 kts 333°
2026-04-26 17:04 38.42827 14.48951 24974 ft 420 kts 333°
2026-04-26 17:04 38.45472 14.47332 25404 ft 422 kts 333°
2026-04-26 17:04 38.48128 14.45705 25747 ft 425 kts 333°
2026-04-26 17:05 38.50803 14.44066 26141 ft 427 kts 333°
2026-04-26 17:05 38.53487 14.42420 26543 ft 429 kts 333°
2026-04-26 17:05 38.56188 14.40762 26940 ft 430 kts 333°
2026-04-26 17:05 38.58860 14.39120 27307 ft 432 kts 333°
2026-04-26 17:06 38.61573 14.37451 27671 ft 434 kts 332°
2026-04-26 17:06 38.64304 14.35770 28029 ft 436 kts 332°
2026-04-26 17:06 38.67042 14.34082 28377 ft 438 kts 332°
2026-04-26 17:06 38.69792 14.32386 28711 ft 440 kts 333°
2026-04-26 17:07 38.72569 14.30671 28896 ft 445 kts 333°
2026-04-26 17:07 38.75364 14.28945 29186 ft 447 kts 333°
2026-04-26 17:07 38.78165 14.27214 29635 ft 446 kts 333°
2026-04-26 17:07 38.80948 14.25493 30132 ft 443 kts 333°
2026-04-26 17:08 40.03549 13.44103 30176 ft 22930 kts 333°
2026-04-26 17:08 40.25018 13.31890 30450 ft 23138 kts 330°
2026-04-26 17:08 40.26060 13.30904 30910 ft 435 kts 329°
2026-04-26 17:08 40.26567 13.30516 31063 ft 436 kts 333°
2026-04-26 17:09 39.63502 13.74624 31463 ft 0 kts 331°
2026-04-26 17:09 39.64577 13.73829 32877 ft 358 kts 327°
2026-04-26 17:09 39.66873 13.71686 36531 ft 261 kts 302°
2026-04-26 17:09 39.68023 13.69958 36395 ft 260 kts 320°
2026-04-26 17:10 39.69628 13.68360 34564 ft 325 kts 323°
2026-04-26 17:10 39.71583 13.66519 33323 ft 367 kts 323°
2026-04-26 17:10 39.73828 13.64544 31925 ft 412 kts 330°
2026-04-26 17:10 39.76444 13.62803 31091 ft 442 kts 335°
2026-04-26 17:11 39.79327 13.61169 30642 ft 461 kts 337°
2026-04-26 17:11 39.82323 13.59547 30544 ft 470 kts 337°
2026-04-26 17:11 39.85346 13.57887 30744 ft 472 kts 336°
2026-04-26 17:11 39.88355 13.56186 30989 ft 472 kts 335°
2026-04-26 17:12 39.94331 13.52670 31471 ft 463 kts 335°
2026-04-26 17:12 39.97196 13.50946 31703 ft 446 kts 334°
2026-04-26 17:13 40.02748 13.47577 32135 ft 438 kts 334°
2026-04-26 17:13 40.05508 13.45898 32146 ft 436 kts 334°
2026-04-26 17:14 40.13772 13.40874 32145 ft 437 kts 335°
2026-04-26 17:14 40.22020 13.35855 32146 ft 436 kts 335°
2026-04-26 17:15 40.30092 13.30428 32145 ft 435 kts 323°
2026-04-26 17:16 40.34808 13.25474 32144 ft 435 kts 320°
2026-04-26 17:16 40.39378 13.20278 32143 ft 434 kts 319°
2026-04-26 17:17 40.43912 13.15039 32143 ft 434 kts 319°
2026-04-26 17:17 40.48430 13.09836 32143 ft 434 kts 319°
2026-04-26 17:18 40.52982 13.04607 32143 ft 434 kts 319°
2026-04-26 17:18 40.57533 12.99377 32143 ft 434 kts 319°
2026-04-26 17:19 40.64360 12.91514 32140 ft 434 kts 319°
2026-04-26 17:19 40.68896 12.86275 32141 ft 433 kts 319°
2026-04-26 17:20 40.72666 12.81914 32140 ft 433 kts 319°
2026-04-26 17:20 40.77959 12.75780 32139 ft 434 kts 319°
2026-04-26 17:21 40.82459 12.70554 32143 ft 434 kts 319°
2026-04-26 17:21 40.86987 12.65285 32146 ft 434 kts 318°
2026-04-26 17:22 40.91509 12.60013 32140 ft 433 kts 318°
2026-04-26 17:22 40.96029 12.54734 32140 ft 433 kts 318°
2026-04-26 17:23 41.00545 12.49449 32140 ft 433 kts 318°
2026-04-26 17:23 41.05057 12.44158 32140 ft 433 kts 318°
2026-04-26 17:24 41.09565 12.38860 32139 ft 433 kts 318°
2026-04-26 17:24 41.14071 12.33557 32140 ft 432 kts 318°
2026-04-26 17:25 41.18564 12.28259 32137 ft 432 kts 318°
2026-04-26 17:25 41.23052 12.22956 32140 ft 432 kts 318°
2026-04-26 17:26 41.27543 12.17639 32138 ft 432 kts 318°
2026-04-26 17:26 41.31997 12.12357 32138 ft 432 kts 317°
2026-04-26 17:27 41.36482 12.07028 32142 ft 432 kts 317°
2026-04-26 17:27 41.40959 12.01699 32141 ft 431 kts 317°
2026-04-26 17:28 41.45427 11.96368 32142 ft 431 kts 317°
2026-04-26 17:28 41.49892 11.91032 32137 ft 431 kts 317°
2026-04-26 17:29 41.53598 11.86595 32139 ft 431 kts 317°
2026-04-26 17:29 41.58800 11.80354 32136 ft 426 kts 317°
2026-04-26 17:30 41.63135 11.75145 32137 ft 419 kts 317°
2026-04-26 17:30 41.67466 11.69928 32140 ft 418 kts 317°
2026-04-26 17:31 41.71791 11.64709 32141 ft 418 kts 317°
2026-04-26 17:31 41.76110 11.59488 32137 ft 418 kts 317°
2026-04-26 17:32 41.80429 11.54256 32140 ft 418 kts 317°
2026-04-26 17:32 41.84744 11.49020 32142 ft 418 kts 316°
2026-04-26 17:33 41.89058 11.43775 32138 ft 418 kts 316°
2026-04-26 17:34 41.95516 11.35905 32138 ft 418 kts 316°
2026-04-26 17:34 41.99791 11.30682 32141 ft 418 kts 316°
2026-04-26 17:35 42.04119 11.25384 32139 ft 418 kts 317°
2026-04-26 17:35 42.08412 11.20120 32138 ft 417 kts 317°
2026-04-26 17:36 42.12673 11.14885 32138 ft 417 kts 317°
2026-04-26 17:36 42.16956 11.09613 32140 ft 417 kts 317°
2026-04-26 17:37 42.21236 11.04335 32138 ft 417 kts 316°
2026-04-26 17:37 42.25516 10.99045 32138 ft 417 kts 316°
2026-04-26 17:38 42.31928 10.91103 32138 ft 417 kts 316°
2026-04-26 17:38 42.36200 10.85799 32138 ft 417 kts 316°
2026-04-26 17:39 42.40467 10.80489 32140 ft 417 kts 316°
2026-04-26 17:39 42.44736 10.75169 32141 ft 417 kts 316°
2026-04-26 17:40 42.47559 10.71645 32140 ft 417 kts 316°
2026-04-26 17:40 42.53260 10.64513 32141 ft 417 kts 316°
2026-04-26 17:41 42.57513 10.59180 32140 ft 416 kts 316°
2026-04-26 17:41 42.61732 10.53880 32143 ft 415 kts 317°
2026-04-26 17:42 42.65970 10.48546 32143 ft 415 kts 317°
2026-04-26 17:42 42.70212 10.43196 32143 ft 415 kts 317°
2026-04-26 17:43 42.74772 10.38417 32146 ft 415 kts 328°
2026-04-26 17:43 42.79763 10.34463 32143 ft 416 kts 330°
2026-04-26 17:44 42.84830 10.30666 31821 ft 416 kts 330°
2026-04-26 17:44 42.87374 10.28771 31569 ft 417 kts 330°
2026-04-26 17:44 42.89925 10.26862 31319 ft 418 kts 330°
2026-04-26 17:45 42.92472 10.24949 31073 ft 419 kts 330°
2026-04-26 17:45 42.94988 10.23050 30832 ft 420 kts 330°
2026-04-26 17:45 42.97579 10.21089 30591 ft 421 kts 330°
2026-04-26 17:45 43.00108 10.19171 30351 ft 422 kts 330°
2026-04-26 17:46 43.02674 10.17222 30169 ft 422 kts 330°
2026-04-26 17:46 43.05248 10.15265 30151 ft 424 kts 330°
2026-04-26 17:46 43.10398 10.11345 30150 ft 424 kts 330°
2026-04-26 17:47 43.13847 10.08717 30149 ft 424 kts 330°
2026-04-26 17:47 43.19832 10.04147 30153 ft 424 kts 329°
2026-04-26 17:48 43.24984 10.00205 30156 ft 424 kts 329°
2026-04-26 17:48 43.30133 9.96257 30150 ft 424 kts 329°
2026-04-26 17:49 43.35286 9.92298 30144 ft 424 kts 329°
2026-04-26 17:49 43.40437 9.88333 30159 ft 424 kts 329°
2026-04-26 17:50 43.45580 9.84366 30146 ft 424 kts 329°
2026-04-26 17:50 43.50728 9.80388 30149 ft 424 kts 329°
2026-04-26 17:51 43.55831 9.76437 30148 ft 424 kts 329°
2026-04-26 17:51 43.60975 9.72445 30156 ft 424 kts 329°
2026-04-26 17:52 43.66089 9.68471 29892 ft 417 kts 329°
2026-04-26 17:52 43.68624 9.66498 29170 ft 420 kts 329°
2026-04-26 17:52 43.71188 9.64497 28186 ft 425 kts 329°
2026-04-26 17:53 43.73777 9.62476 27197 ft 430 kts 329°
2026-04-26 17:53 43.76389 9.60434 26258 ft 433 kts 329°
2026-04-26 17:53 43.79021 9.58377 25350 ft 437 kts 329°
2026-04-26 17:54 43.84350 9.54207 23490 ft 443 kts 329°
2026-04-26 17:54 43.87040 9.52099 22389 ft 446 kts 329°
2026-04-26 17:54 43.89743 9.49978 21266 ft 446 kts 329°
2026-04-26 17:54 43.92425 9.47872 19622 ft 442 kts 329°
2026-04-26 17:55 43.95127 9.45747 17988 ft 447 kts 329°
2026-04-26 17:55 43.97788 9.43651 17385 ft 437 kts 329°
2026-04-26 17:55 44.00411 9.41583 16785 ft 422 kts 330°
2026-04-26 17:55 44.02859 9.39653 16196 ft 399 kts 330°
2026-04-26 17:56 44.05317 9.37714 15678 ft 400 kts 330°
2026-04-26 17:56 44.10045 9.33979 14704 ft 382 kts 330°
2026-04-26 17:57 44.13689 9.29079 13797 ft 366 kts 296°
2026-04-26 17:57 44.14400 9.25726 13306 ft 359 kts 278°
2026-04-26 17:57 44.14608 9.22324 13025 ft 347 kts 274°
2026-04-26 17:57 44.14734 9.19041 12801 ft 334 kts 273°
2026-04-26 17:58 44.15067 9.09900 12212 ft 297 kts 273°
2026-04-26 17:59 44.15624 9.04293 12159 ft 310 kts 292°
2026-04-26 17:59 44.16758 9.01691 12154 ft 320 kts 311°
2026-04-26 17:59 44.18316 8.99463 12139 ft 322 kts 319°
2026-04-26 17:59 44.20041 8.97469 11682 ft 323 kts 323°
2026-04-26 18:00 44.21849 8.95626 11185 ft 320 kts 327°
2026-04-26 18:00 44.23783 8.94170 10855 ft 312 kts 339°
2026-04-26 18:00 44.25852 8.93478 10539 ft 303 kts 357°
2026-04-26 18:00 44.27905 8.93756 10270 ft 293 kts 17°
2026-04-26 18:01 44.29714 8.94995 9854 ft 289 kts 38°
2026-04-26 18:01 44.31060 8.97050 9363 ft 288 kts 59°
2026-04-26 18:01 44.31775 8.99636 8917 ft 285 kts 80°
2026-04-26 18:01 44.31799 9.02387 8449 ft 284 kts 100°
2026-04-26 18:02 44.31154 9.04967 7987 ft 283 kts 119°
2026-04-26 18:02 44.30398 9.06437 7706 ft 281 kts 131°
2026-04-26 18:02 44.28456 9.08853 7177 ft 278 kts 142°
2026-04-26 18:02 44.26871 9.10378 7026 ft 275 kts 146°
2026-04-26 18:03 44.25262 9.11817 6995 ft 275 kts 146°
2026-04-26 18:03 44.23671 9.13233 6686 ft 275 kts 146°
2026-04-26 18:03 44.22175 9.14880 6234 ft 272 kts 133°
2026-04-26 18:03 44.21110 9.17012 6028 ft 267 kts 113°
2026-04-26 18:04 44.20700 9.19516 6008 ft 267 kts 90°
2026-04-26 18:04 44.21101 9.22031 6006 ft 269 kts 62°
2026-04-26 18:04 44.22338 9.23960 6010 ft 271 kts 35°
2026-04-26 18:05 44.25808 9.24913 5999 ft 250 kts 358°
2026-04-26 18:05 44.27543 9.24728 6005 ft 251 kts 352°
2026-04-26 18:05 44.29223 9.24013 5765 ft 254 kts 336°
2026-04-26 18:05 44.30799 9.22883 5388 ft 254 kts 332°
2026-04-26 18:06 44.32322 9.21643 5027 ft 253 kts 324°
2026-04-26 18:06 44.33467 9.19815 4632 ft 251 kts 297°
2026-04-26 18:06 44.34084 9.17590 4358 ft 240 kts 287°
2026-04-26 18:06 44.34567 9.15295 3795 ft 253 kts 286°
2026-04-26 18:07 44.35055 9.12954 3481 ft 248 kts 286°
2026-04-26 18:07 44.35528 9.10675 3402 ft 243 kts 285°
2026-04-26 18:07 44.36006 9.08401 3396 ft 245 kts 285°
2026-04-26 18:07 44.36327 9.06907 3334 ft 238 kts 285°
2026-04-26 18:08 44.36962 9.04019 2947 ft 228 kts 285°
2026-04-26 18:08 44.37412 9.01937 2555 ft 219 kts 284°
2026-04-26 18:08 44.37842 8.99950 2224 ft 208 kts 284°
2026-04-26 18:08 44.38248 8.98070 1908 ft 195 kts 285°
2026-04-26 18:09 44.38625 8.96330 1660 ft 179 kts 285°
2026-04-26 18:09 44.38973 8.94719 1409 ft 169 kts 285°
2026-04-26 18:09 44.39308 8.93166 1195 ft 161 kts 285°
2026-04-26 18:09 44.39612 8.91763 957 ft 148 kts 285°
2026-04-26 18:10 44.39898 8.90438 765 ft 142 kts 285°
2026-04-26 18:10 44.40181 8.89127 572 ft 140 kts 284°
2026-04-26 18:10 44.40471 8.87830 382 ft 139 kts 285°
2026-04-26 18:10 44.40734 8.86528 201 ft 139 kts 282°
2026-04-26 18:11 44.40986 8.85254 31 ft 129 kts 284°
2026-04-26 18:11 44.41185 8.84238 27 ft 71 kts 285°
2026-04-26 18:11 44.41264 8.83863 24 ft 29 kts 301°
2026-04-26 18:11 44.41394 8.83758 23 ft 17 kts 27°
2026-04-26 18:12 44.41403 8.83902 23 ft 17 kts 108°
2026-04-26 18:12 44.41371 8.84060 24 ft 17 kts 102°
2026-04-26 18:12 44.41341 8.84221 25 ft 17 kts 105°
2026-04-26 18:12 44.41313 8.84383 25 ft 17 kts 86°
2026-04-26 18:13 44.41375 8.84517 25 ft 17 kts 52°
2026-04-26 18:13 44.41440 8.84635 24 ft 15 kts 52°
2026-04-26 18:13 44.41497 8.84739 24 ft 10 kts 53°
2026-04-26 18:13 44.41514 8.84778 24 ft 6 kts 76°
2026-04-26 18:14 44.41504 8.84855 23 ft 6 kts 105°
2026-04-26 18:14 44.41493 8.84916 24 ft 4 kts 105°
2026-04-26 18:14 44.41491 8.84925 24 ft 1 kts 105°
2026-04-26 18:14 44.41491 8.84926 24 ft 0 kts 105°